Location: Unspecified
(26.3010°N, 0.0000°E)
Time: 04:44:53
(UTC+00:00)

NOAA 16 DEB - Visible Passes

Search period start: 04 April 2026 00:00
Search period end: 14 April 2026 00:00
Orbit: 793 x 803 km, 98.6° (Epoch: 29 March)

Date Brightness Start Highest point End Pass type
(mag) Time Alt. Az. Time Alt. Az. Time Alt. Az.
4 Apr ? 20:22:41 28° NNE 20:22:41 28° NNE 20:25:22 10° N visible
5 Apr ? 19:54:57 19° NE 19:54:57 19° NE 19:57:19 10° NNE visible
5 Apr ? 21:35:50 17° NW 21:35:50 17° NW 21:37:18 10° NW visible
6 Apr ? 19:27:13 11° ENE 19:27:13 11° ENE 19:27:51 10° NE visible
6 Apr ? 21:08:06 28° NNW 21:08:06 28° NNW 21:10:33 10° NNW visible
7 Apr ? 20:40:22 34° N 20:40:22 34° N 20:43:18 10° N visible
8 Apr ? 20:12:37 27° NE 20:12:37 27° NE 20:15:36 10° N visible
8 Apr ? 21:53:30 13° WNW 21:53:30 13° WNW 21:54:14 10° NW visible
9 Apr ? 19:44:52 17° NE 19:44:52 17° NE 19:47:14 10° NNE visible
9 Apr ? 21:25:45 23° NW 21:25:45 23° NW 21:27:57 10° NNW visible
10 Apr ? 20:58:00 35° NNW 20:58:00 35° NNW 21:01:00 10° NNW visible
11 Apr ? 20:30:14 37° NNE 20:30:14 37° NNE 20:33:33 10° N visible
12 Apr ? 20:02:27 25° NE 20:02:27 25° NE 20:05:38 10° NNE visible
12 Apr ? 21:43:20 17° WNW 21:43:20 17° WNW 21:45:01 10° NW visible
13 Apr ? 19:34:41 14° ENE 19:34:41 14° ENE 19:36:49 10° NE visible
13 Apr ? 21:15:34 31° NW 21:15:34 31° NW 21:18:26 10° NNW visible
